Theta_e
322 322 324 322 322 324 324 325 324 326 325 324 324 323 324 328 330 331 333 332 332 330 331 331 329 330 327 324 321 319 316 316 311 315 317 322 324 324 324 326 323 324 318
321 321 322 322 322 323 324 325 327 327 328 328 327 327 325 326 328 329 329 330 330 328 328 329 328 327 328 326 323 321 319 320 316 316 319 320 322 324 325 324 321 320 317
319 320 321 321 321 323 323 323 326 327 327 327 327 326 326 324 324 324 325 326 328 329 329 328 327 328 325 325 325 320 321 320 322 317 316 317 317 318 319 318 316 317 313
319 320 320 321 321 322 323 324 325 326 326 325 325 324 323 323 322 321 322 321 321 323 326 326 326 327 326 324 323 324 322 322 322 318 316 316 316 315 319 315 312 313 311
320 320 321 320 320 320 322 323 323 325 325 325 324 324 324 322 320 323 323 323 321 319 319 320 320 317 313 317 324 325 325 322 319 318 317 316 315 313 316 316 315 312 312
321 320 321 318 318 320 320 321 322 323 323 324 323 323 323 317 301 305 318 322 322 321 319 319 317 313 309 306 308 309 321 325 323 319 318 317 319 317 316 315 314 310 308
321 321 320 318 317 319 319 320 320 323 324 323 322 323 323 320 299 299 305 320 320 320 319 318 314 311 315 316 304 304 303 303 309 325 322 321 321 319 318 315 315 313 313
321 320 320 317 317 319 318 320 320 320 323 322 322 323 322 318 297 296 301 315 315 314 316 316 317 316 313 315 317 316 317 316 317 317 322 324 322 322 319 318 317 315 312
320 320 320 317 317 318 318 318 319 319 319 319 320 320 321 319 296 295 304 311 309 308 307 308 311 310 297 296 314 313 313 313 298 296 296 294 295 296 307 312 309 308 307
320 320 321 318 317 318 320 318 318 319 319 317 317 319 312 320 295 294 303 307 308 305 307 307 297 304 293 294 310 310 309 311 308 306 308 303 299 303 297 312 311 305 304
320 321 322 320 318 320 321 320 318 317 317 316 315 317 317 317 315 295 295 310 308 307 307 308 308 293 292 292 296 309 308 307 302 306 305 305 305 307 306 307 310 307 303
321 321 322 322 317 318 320 319 319 318 317 317 316 316 315 317 303 296 295 296 305 315 314 314 312 294 292 292 294 297 292 295 306 305 304 304 303 303 305 307 309 308 307
320 321 323 323 321 318 319 319 317 318 316 315 313 313 313 313 315 297 295 294 295 311 317 309 300 294 293 294 292 294 289 302 308 307 306 306 305 305 306 305 306 308 308
320 322 323 323 322 320 317 318 317 316 316 315 313 313 315 315 313 314 309 306 297 303 300 308 304 301 299 301 303 301 306 309 308 307 307 307 305 303 302 303 301 302 300
322 322 323 322 322 322 320 318 316 322 316 317 317 317 318 318 318 311 311 314 314 308 308 312 310 310 310 311 311 310 309 308 306 306 305 304 303 303 303 305 302 299 299
321 321 321 321 322 321 320 319 303 301 299 298 299 311 319 304 298 298 297 297 296 293 307 313 313 312 311 314 314 315 314 307 308 304 304 304 304 301 300 302 300 299 300
321 322 322 319 321 321 320 319 317 312 297 296 295 297 296 296 296 296 295 292 290 293 313 308 306 310 310 313 314 312 311 310 305 304 301 300 298 299 298 299 300 300 299
322 307 322 321 322 321 321 321 320 319 320 320 296 297 295 295 296 293 291 297 302 305 314 314 316 317 316 313 311 306 305 302 298 297 298 300 300 299 298 299 299 298 298
321 321 321 322 322 320 323 322 321 321 321 322 314 304 296 291 290 291 294 317 319 317 315 311 310 310 309 303 302 301 297 296 295 298 299 300 300 299 299 300 300 290 292
322 309 313 324 322 321 321 321 321 322 322 322 321 317 311 309 313 312 314 316 308 310 307 304 302 302 299 296 295 298 298 299 300 300 301 301 301 301 301 301 300 299 299
320 319 308 320 323 323 320 321 321 321 322 322 318 311 296 314 312 311 310 307 304 303 300 299 299 297 296 297 299 298 299 299 300 299 299 299 301 301 301 301 300 301 299
321 320 318 320 320 321 320 321 322 321 318 314 309 303 291 308 303 304 303 300 300 302 299 299 299 296 298 298 299 298 297 297 297 298 299 300 300 301 300 300 299 297 297
320 319 319 319 319 310 319 319 317 316 313 309 308 308 309 308 307 303 303 300 297 297 301 299 298 297 298 298 297 298 297 297 298 299 299 299 300 299 299 298 295 294 292
319 319 319 319 317 318 316 314 312 305 310 309 309 308 306 304 302 299 295 296 296 296 299 299 299 298 297 297 297 297 298 300 300 299 299 299 298 297 298 297 296 294 292
319 320 318 317 315 313 311 311 310 310 307 304 301 300 300 295 295 295 297 297 298 297 296 297 297 296 297 298 298 298 288 285 294 288 300 298 297 297 296 295 294 293 291
319 317 316 315 313 313 310 308 307 304 301 299 297 296 295 296 296 298 298 299 298 296 296 297 298 298 298 298 295 287 285 285 291 285 297 298 297 297 296 295 295 292 289
Wind_Speed
3 2 2 4 4 5 6 5 2 3 4 7 8 7 4 5 7 7 5 6 7 9 8 10 11 11 8 7 6 4 5 5 10 5 7 7 6 6 6 5 7 7 8
5 4 2 4 4 5 6 6 5 6 6 8 9 10 9 9 7 8 8 8 10 9 7 9 11 8 9 8 5 4 4 4 8 12 8 6 5 4 4 5 5 5 8
6 6 4 4 4 6 6 6 6 6 8 8 9 11 11 10 9 8 9 9 10 9 9 10 10 9 7 6 5 5 5 6 8 9 8 3 3 4 5 4 5 6 6
7 6 5 5 4 4 5 6 6 6 8 9 9 10 10 11 10 10 9 10 9 9 8 9 9 8 9 8 5 5 6 7 6 7 6 5 4 4 5 7 7 5 5
9 7 6 5 5 5 6 6 6 6 7 8 9 9 9 8 6 10 10 10 10 10 8 8 7 9 10 6 4 6 7 6 6 7 6 5 6 7 8 6 6 6 6
11 9 8 6 7 6 6 6 6 7 7 7 7 7 7 6 8 9 8 8 8 9 8 7 8 8 8 7 8 5 3 7 7 6 6 8 8 7 6 7 7 7 7
11 10 10 9 8 8 8 8 8 7 7 6 6 6 6 6 7 8 7 6 6 6 6 6 5 4 5 8 8 9 8 4 2 5 7 7 6 9 8 9 10 9 8
12 11 10 10 10 9 9 9 7 6 7 6 6 5 5 4 6 7 6 6 5 5 5 5 5 5 4 5 5 5 4 3 2 3 5 4 6 5 9 6 8 8 5
13 13 13 12 11 10 10 9 8 7 7 6 6 6 6 6 7 8 6 6 5 5 4 4 4 5 5 2 5 5 4 3 4 4 3 4 5 4 7 6 8 8 9
15 15 14 13 13 12 11 10 8 7 7 6 6 5 4 6 10 10 8 6 7 6 6 5 3 4 9 6 4 4 4 4 4 4 4 3 3 5 7 10 7 9 9
15 15 15 14 13 12 11 9 9 8 7 7 7 7 8 8 9 11 9 7 6 6 5 5 5 8 8 8 6 6 5 4 5 6 6 6 5 6 6 9 10 10 10
15 15 16 15 12 10 12 10 10 9 9 8 8 7 7 7 8 12 13 12 3 4 5 5 5 13 12 12 9 8 7 7 6 6 7 7 7 7 8 9 12 12 11
16 16 16 15 13 13 13 12 10 10 9 8 7 7 6 6 7 10 10 8 6 6 5 2 7 12 11 9 13 6 8 7 8 8 8 7 6 6 7 7 10 12 12
17 16 14 14 14 13 10 10 10 10 9 9 8 8 7 7 7 7 8 7 7 8 4 6 3 3 5 4 2 8 8 7 7 8 8 7 7 6 7 8 9 9 10
16 15 14 13 14 13 12 11 11 10 10 9 9 8 8 8 7 7 8 6 6 7 6 6 6 5 5 5 5 5 5 5 5 5 6 7 8 8 8 7 8 7 12
16 14 13 13 12 12 11 10 9 7 11 11 4 6 6 2 9 10 11 9 8 13 5 6 5 3 4 4 3 2 2 2 4 4 5 6 7 7 7 8 6 8 11
19 16 13 14 13 13 12 12 11 10 7 8 8 5 2 8 8 8 9 5 8 8 3 1 1 1 2 2 3 2 3 3 3 4 6 7 5 6 6 7 7 8 9
19 16 14 14 14 14 13 12 11 11 10 10 8 1 8 9 8 9 12 12 4 0 2 2 1 2 2 5 5 5 4 3 3 3 4 5 5 5 7 7 8 8 9
17 15 16 14 14 14 13 14 13 12 11 10 6 5 9 11 11 11 9 3 3 3 3 4 4 6 5 5 8 6 4 3 4 4 4 4 5 5 7 7 8 6 7
16 13 11 10 10 12 13 13 13 13 12 10 7 7 8 5 7 7 5 7 6 8 6 4 9 7 4 5 5 2 3 5 5 4 5 5 5 5 7 7 8 8 8
12 13 14 11 11 11 12 11 11 10 8 7 7 6 8 10 10 9 9 9 7 11 8 11 7 4 7 4 2 3 4 4 5 5 5 6 6 6 6 6 7 7 9
11 12 14 14 12 13 12 10 8 9 10 11 11 11 8 12 11 11 11 9 9 10 5 8 7 7 5 4 2 4 4 5 5 5 6 6 5 6 6 7 8 8 8
11 13 13 11 10 9 10 11 11 12 13 14 14 13 11 11 11 11 10 9 5 8 7 5 4 9 7 6 4 4 4 4 4 5 5 5 5 5 5 6 7 7 7
12 12 12 11 11 12 12 12 12 14 16 16 14 13 13 12 12 11 9 10 8 5 6 7 8 9 7 5 3 4 4 5 5 5 5 5 5 6 6 7 7 8 8
11 11 12 12 12 13 14 14 14 15 14 12 12 12 13 11 11 9 8 11 9 8 8 8 7 10 10 12 10 9 8 6 6 6 4 6 6 7 7 6 8 9 9
11 13 12 12 12 13 15 15 15 15 14 12 13 11 13 11 10 11 10 12 11 9 11 9 12 14 12 10 10 5 2 3 4 5 5 5 7 8 9 10 13 9 10
Wind_Direction
177 121 75 79 72 59 79 84 71 98 92 103 121 120 139 142 136 138 139 160 150 149 152 162 152 153 153 152 157 141 141 142 144 130 137 138 133 147 147 155 161 182 160
171 154 130 97 93 73 68 70 65 52 81 100 113 112 113 114 123 126 139 145 149 144 145 154 143 145 151 155 152 124 133 141 142 142 136 146 128 134 146 145 157 154 163
163 158 148 115 101 101 78 75 85 74 68 76 94 99 104 108 109 109 119 119 124 136 146 147 138 143 141 142 140 154 145 146 152 158 146 141 102 155 144 137 147 145 168
160 161 155 146 121 116 109 94 98 97 94 86 83 94 101 112 116 115 110 106 110 113 116 123 134 148 157 156 151 151 137 147 141 142 143 148 165 154 190 174 174 183 167
166 168 163 148 141 140 128 112 101 103 103 103 99 89 87 88 90 107 102 100 102 99 90 90 74 67 54 70 165 166 155 162 163 169 167 174 179 176 198 183 199 184 191
176 172 160 160 157 150 139 130 120 122 119 118 114 113 104 87 64 64 94 102 105 111 111 103 109 116 92 89 87 71 148 170 180 189 187 207 197 202 185 194 196 202 218
183 172 166 165 165 161 153 150 147 143 137 132 127 128 113 111 110 107 110 113 119 120 128 137 141 117 137 118 95 100 78 50 354 213 210 214 207 206 195 201 209 219 231
183 176 173 172 170 164 164 161 153 155 154 151 153 145 138 117 125 120 109 119 127 138 155 160 151 144 113 133 141 130 119 93 81 228 238 240 236 200 206 226 229 238 248
184 179 178 175 176 170 171 165 161 160 163 170 176 171 175 151 158 160 157 141 134 141 151 156 148 146 127 182 158 148 150 164 108 40 16 344 300 252 230 203 212 216 238
186 183 181 178 178 181 175 168 166 174 176 175 172 186 173 177 171 176 175 160 165 172 179 174 209 182 162 183 162 172 201 216 215 230 234 230 232 206 221 230 238 233 239
186 179 177 180 182 181 171 170 170 176 171 183 187 188 201 204 179 183 202 183 182 182 177 183 193 187 188 193 217 201 215 183 200 233 234 231 226 223 217 219 233 239 244
185 180 178 179 182 177 174 175 180 178 184 189 196 203 206 209 214 189 199 227 195 199 196 189 172 179 197 204 206 228 196 201 230 232 240 244 243 240 239 233 232 235 244
188 184 180 178 184 180 180 179 182 186 192 196 199 207 207 201 215 201 198 204 216 241 239 187 165 189 198 210 231 226 187 227 246 249 255 257 249 257 273 262 252 252 249
188 187 182 182 183 185 189 186 192 191 197 199 199 208 204 198 204 201 198 196 198 208 158 200 213 235 232 305 199 202 235 252 271 276 286 301 301 290 265 261 265 263 251
187 187 186 189 188 188 197 193 199 204 202 198 209 212 202 214 206 187 185 195 205 208 194 227 227 227 245 243 241 247 255 247 255 280 293 298 284 276 282 281 272 274 266
186 190 190 190 188 195 195 197 227 249 198 223 49 231 215 241 132 164 187 210 185 147 204 238 246 253 269 282 285 305 307 301 314 304 285 275 283 301 310 303 287 264 277
190 190 189 191 190 194 196 201 206 209 199 219 206 230 250 24 156 157 186 117 124 141 237 136 321 351 286 328 301 359 329 344 354 324 321 309 294 307 299 291 286 285 287
190 184 192 198 192 191 198 202 206 210 209 221 60 292 204 166 143 162 134 135 108 246 250 249 286 340 359 33 18 10 17 10 50 63 272 309 333 313 311 308 307 306 299
192 192 195 189 197 197 191 197 205 210 215 222 133 106 74 96 97 120 159 193 153 132 89 61 26 61 36 39 68 22 311 87 34 360 329 323 334 322 311 312 313 301 296
202 196 193 191 187 192 199 202 202 207 209 212 179 139 135 139 121 124 116 111 101 106 85 109 90 76 64 85 33 214 44 24 47 7 344 337 336 322 325 329 331 329 320
196 184 180 183 188 187 193 200 209 206 196 152 137 119 132 126 124 120 110 106 113 98 112 93 86 86 101 54 56 42 57 36 27 2 349 351 345 343 342 335 326 328 337
188 187 187 191 189 195 199 192 175 146 142 126 113 112 124 115 114 112 107 106 104 89 103 105 109 97 104 101 88 63 55 44 27 11 12 13 3 3 353 347 347 338 339
178 176 187 184 178 161 144 151 146 137 131 129 130 126 115 112 109 104 103 97 53 109 119 100 148 100 95 90 63 53 63 47 31 21 13 9 12 355 5 359 352 347 335
158 163 153 146 159 149 143 137 130 129 132 129 125 121 117 114 114 118 121 119 110 137 110 122 96 92 95 92 94 69 50 30 25 18 349 351 355 351 356 349 348 336 322
145 134 133 143 142 126 123 124 124 124 118 119 116 114 116 111 119 117 139 117 133 115 113 105 103 97 91 78 68 57 41 8 7 310 359 355 355 351 351 340 332 327 327
134 131 133 132 133 134 132 131 126 126 121 122 120 132 126 119 126 132 130 125 122 119 116 110 96 89 82 70 62 46 352 4 15 331 331 7 359 351 350 335 339 339 330